| time (UTC) | temp F | wind direction | speed knots | gust knots | rain 1hr in | rain 24hr in | rain mn in | humidity % | barometer mb |
| 20260510203031 | 59 | 76 | 2.6 | 8.7 | 0.00 | 0.19 | 0.00 | 36 | 1011.9 |
| 20260510201550 | 59 | 305 | 0.9 | 6.1 | 0.00 | 0.19 | 0.00 | 37 | 1011.9 |
| 20260510200144 | 59 | 15 | 1.7 | 7.0 | 0.00 | 0.19 | 0.00 | 44 | 1012.1 |
| 20260510194640 | 59 | 242 | 1.7 | 6.1 | 0.00 | 0.19 | 0.00 | 43 | 1012.1 |
| 20260510193148 | 59 | 318 | 3.5 | 8.7 | 0.00 | 0.19 | 0.00 | 42 | 1012.0 |
| 20260510191643 | 59 | 265 | 2.6 | 5.2 | 0.00 | 0.19 | 0.00 | 38 | 1012.0 |
| 20260510190028 | 58 | 43 | 2.6 | 7.0 | 0.00 | 0.19 | 0.00 | 40 | 1012.1 |
| 20260510184611 | 58 | 240 | 2.6 | 5.2 | 0.00 | 0.19 | 0.00 | 41 | 1012.0 |
| 20260510183034 | 59 | 9 | 0.9 | 7.8 | 0.00 | 0.19 | 0.00 | 45 | 1011.8 |
| 20260510181607 | 59 | 248 | 2.6 | 7.0 | 0.00 | 0.19 | 0.00 | 38 | 1011.6 |
| 20260510180138 | 59 | 284 | 3.5 | 8.7 | 0.00 | 0.19 | 0.00 | 42 | 1011.4 |
| 20260510174654 | 57 | 277 | 3.5 | 9.6 | 0.00 | 0.19 | 0.00 | 35 | 1011.4 |
| 20260510173019 | 58 | 90 | 3.5 | 6.1 | 0.00 | 0.19 | 0.00 | 40 | 1011.3 |
| 20260510171606 | 58 | 33 | 2.6 | 6.1 | 0.00 | 0.19 | 0.00 | 39 | 1011.4 |
| 20260510170003 | 58 | 345 | 1.7 | 6.1 | 0.00 | 0.19 | 0.00 | 40 | 1011.6 |
| 20260510164558 | 57 | 281 | 1.7 | 7.0 | 0.00 | 0.19 | 0.00 | 42 | 1011.5 |
| 20260510163019 | 58 | 344 | 0.9 | 5.2 | 0.00 | 0.19 | 0.00 | 47 | 1011.3 |
| 20260510161559 | 57 | 17 | 1.7 | 6.1 | 0.00 | 0.19 | 0.00 | 47 | 1011.2 |
| 20260510160009 | 56 | 298 | 2.6 | 9.6 | 0.00 | 0.19 | 0.00 | 46 | 1011.1 |
| 20260510154554 | 55 | 5 | 0.9 | 7.8 | 0.00 | 0.19 | 0.00 | 49 | 1011.0 |
| 20260510153137 | 55 | 298 | 1.7 | 7.0 | 0.00 | 0.19 | 0.00 | 49 | 1010.7 |
| 20260510151505 | 55 | 349 | 3.5 | 7.8 | 0.00 | 0.19 | 0.00 | 50 | 1010.8 |
| 20260510150058 | 55 | 229 | 0.9 | 12.2 | 0.00 | 0.19 | 0.00 | 57 | 1010.6 |
| 20260510144521 | 54 | 25 | 1.7 | 8.7 | 0.00 | 0.19 | 0.00 | 52 | 1010.4 |
| 20260510143053 | 53 | 355 | 2.6 | 7.0 | 0.00 | 0.19 | 0.00 | 53 | 1010.3 |
| 20260510141645 | 53 | 11 | 4.3 | 7.8 | 0.00 | 0.19 | 0.00 | 53 | 1010.3 |
| 20260510140009 | 52 | 17 | 4.3 | 7.8 | 0.00 | 0.19 | 0.00 | 51 | 1010.4 |
| 20260510134605 | 51 | 36 | 4.3 | 8.7 | 0.00 | 0.19 | 0.00 | 50 | 1010.6 |
| 20260510133023 | 51 | 48 | 2.6 | 9.6 | 0.00 | 0.19 | 0.00 | 56 | 1010.2 |
| 20260510131549 | 51 | 34 | 6.1 | 9.6 | 0.00 | 0.19 | 0.00 | 56 | 1009.9 |
| 20260510130137 | 50 | 355 | 2.6 | 9.6 | 0.00 | 0.19 | 0.00 | 59 | 1009.6 |
| 20260510124513 | 50 | 24 | 3.5 | 7.0 | 0.00 | 0.19 | 0.00 | 61 | 1009.3 |
| 20260510123108 | 48 | 44 | 2.6 | 6.1 | 0.00 | 0.19 | 0.00 | 65 | 1009.0 |
| 20260510121533 | 49 | 17 | 4.3 | 8.7 | 0.00 | 0.19 | 0.00 | 64 | 1008.9 |
| 20260510120100 | 48 | 345 | 0.9 | 7.0 | 0.00 | 0.19 | 0.00 | 72 | 1008.8 |
| 20260510114523 | 48 | 336 | 0.9 | 6.1 | 0.00 | 0.19 | 0.00 | 75 | 1008.4 |
| 20260510113051 | 48 | 24 | 3.5 | 7.0 | 0.00 | 0.19 | 0.00 | 75 | 1008.1 |
| 20260510111637 | 47 | 57 | 1.7 | 6.1 | 0.00 | 0.19 | 0.00 | 76 | 1007.7 |
| 20260510110050 | 47 | 9 | 0.0 | 3.5 | 0.00 | 0.19 | 0.00 | 79 | 1007.5 |
| 20260510104635 | 47 | 17 | 0.9 | 4.3 | 0.00 | 0.19 | 0.00 | 78 | 1007.1 |
| 20260510103148 | 47 | 17 | 2.6 | 7.0 | 0.00 | 0.19 | 0.00 | 80 | 1006.7 |
| 20260510101549 | 48 | 19 | 0.0 | 3.5 | 0.00 | 0.19 | 0.00 | 82 | 1006.2 |
| 20260510100110 | 48 | 30 | 0.0 | 2.6 | 0.00 | 0.19 | 0.00 | 81 | 1006.0 |
| 20260510094533 | 47 | 53 | 2.6 | 5.2 | 0.00 | 0.19 | 0.00 | 82 | 1005.8 |
| 20260510093056 | 47 | 294 | 0.0 | 0.0 | 0.00 | 0.19 | 0.00 | 87 | 1005.9 |
| 20260510091530 | 47 | 294 | 0.0 | 0.0 | 0.00 | 0.19 | 0.00 | 88 | 1005.7 |
| 20260510090105 | 46 | 294 | 0.0 | 0.0 | 0.00 | 0.19 | 0.00 | 86 | 1005.3 |
| 20260510084526 | 46 | 294 | 0.0 | 0.0 | 0.00 | 0.19 | 0.00 | 85 | 1005.2 |
| 20260510083117 | 46 | 294 | 0.0 | 0.0 | 0.00 | 0.19 | 0.00 | 86 | 1004.9 |
| 20260510081546 | 47 | 294 | 0.0 | 0.0 | 0.00 | 0.19 | 0.00 | 84 | 1004.8 |
| 20260510080109 | 47 | 294 | 0.0 | 0.0 | 0.00 | 0.19 | 0.00 | 83 | 1004.6 |
| 20260510074503 | 48 | 294 | 0.0 | 0.9 | 0.00 | 0.19 | 0.00 | 81 | 1004.5 |
| 20260510073039 | 49 | 295 | 0.0 | 1.7 | 0.00 | 0.19 | 0.00 | 71 | 1004.0 |
| 20260510071600 | 49 | 13 | 0.9 | 2.6 | 0.00 | 0.19 | 0.00 | 71 | 1003.8 |
| 20260510070144 | 50 | 32 | 1.7 | 5.2 | 0.00 | 0.19 | 0.00 | 70 | 1003.7 |
| 20260510064639 | 50 | 9 | 1.7 | 3.5 | 0.00 | 0.19 | 0.00 | 71 | 1003.6 |
| 20260510063017 | 51 | 355 | 2.6 | 7.0 | 0.00 | 0.19 | 0.00 | 70 | 1003.4 |
| 20260510061600 | 51 | 10 | 2.6 | 10.4 | 0.00 | 0.19 | 0.00 | 71 | 1003.4 |
| 20260510060013 | 52 | 57 | 4.3 | 11.3 | 0.00 | 0.19 | 0.00 | 72 | 1003.0 |
| 20260510054558 | 53 | 26 | 5.2 | 9.6 | 0.00 | 0.19 | 0.00 | 86 | 1002.8 |
| 20260510053137 | 54 | 297 | 0.0 | 2.6 | 0.00 | 0.19 | 0.00 | 89 | 1002.2 |
| 20260510051649 | 54 | 232 | 0.0 | 1.7 | 0.00 | 0.19 | 0.00 | 91 | 1001.8 |
| 20260510050018 | 53 | 330 | 0.0 | 1.7 | 0.00 | 0.19 | 0.00 | 91 | 1001.8 |
| 20260510044607 | 54 | 289 | 0.0 | 4.3 | 0.00 | 0.19 | 0.00 | 89 | 1001.5 |
| 20260510043146 | 54 | 170 | 0.9 | 6.1 | 0.00 | 0.19 | 0.00 | 89 | 1000.9 |
| 20260510041627 | 54 | 187 | 0.0 | 1.7 | 0.00 | 0.19 | 0.00 | 87 | 1000.6 |
| 20260510040004 | 55 | 193 | 0.9 | 4.3 | 0.00 | 0.20 | 0.19 | 87 | 1000.6 |
| 20260510034610 | 54 | 174 | 0.0 | 1.7 | 0.00 | 0.20 | 0.19 | 89 | 1000.5 |
| 20260510033002 | 55 | 148 | 0.9 | 1.7 | 0.02 | 0.20 | 0.19 | 90 | 1000.5 |
| 20260510031555 | 55 | 166 | 0.0 | 1.7 | 0.02 | 0.20 | 0.19 | 90 | 1000.4 |
| 20260510030115 | 56 | 84 | 0.0 | 1.7 | 0.02 | 0.20 | 0.19 | 88 | 1000.2 |
| 20260510024643 | 57 | 305 | 0.0 | 9.6 | 0.04 | 0.20 | 0.19 | 85 | 1000.8 |
| 20260510023144 | 57 | 192 | 2.6 | 6.1 | 0.05 | 0.18 | 0.17 | 84 | 1000.6 |
| 20260510021644 | 57 | 224 | 2.6 | 6.1 | 0.05 | 0.18 | 0.17 | 83 | 1000.4 |
| 20260510020146 | 58 | 180 | 1.7 | 8.7 | 0.05 | 0.18 | 0.17 | 79 | 1000.2 |
| 20260510014517 | 56 | 219 | 4.3 | 9.6 | 0.01 | 0.14 | 0.13 | 83 | 1000.5 |
| 20260510013103 | 56 | 171 | 0.0 | 0.9 | 0.00 | 0.13 | 0.12 | 85 | 999.6 |
| 20260510011639 | 55 | 195 | 0.0 | 1.7 | 0.00 | 0.13 | 0.12 | 87 | 999.6 |
| 20260510010145 | 56 | 173 | 0.0 | 1.7 | 0.00 | 0.13 | 0.12 | 85 | 999.4 |
| 20260510004525 | 57 | 227 | 0.9 | 5.2 | 0.00 | 0.15 | 0.12 | 82 | 999.3 |
| 20260510003101 | 57 | 214 | 1.7 | 4.3 | 0.00 | 0.15 | 0.12 | 82 | 999.4 |
| 20260510001529 | 57 | 229 | 2.6 | 5.2 | 0.01 | 0.15 | 0.12 | 83 | 999.3 |
| 20260510000106 | 57 | 242 | 0.9 | 5.2 | 0.04 | 0.15 | 0.12 | 83 | 999.4 |
| 20260509234634 | 57 | 184 | 3.5 | 8.7 | 0.05 | 0.18 | 0.12 | 84 | 999.4 |
| 20260509233149 | 57 | 261 | 4.3 | 13.0 | 0.12 | 0.18 | 0.12 | 83 | 999.2 |
| 20260509231535 | 57 | 214 | 5.2 | 14.8 | 0.11 | 0.17 | 0.11 | 83 | 999.1 |
| 20260509230115 | 57 | 268 | 1.7 | 12.2 | 0.08 | 0.14 | 0.08 | 83 | 999.2 |
| 20260509224646 | 59 | 245 | 4.3 | 25.2 | 0.07 | 0.18 | 0.07 | 78 | 999.5 |
| 20260509223046 | 68 | 202 | 6.1 | 17.4 | 0.00 | 0.11 | 0.00 | 57 | 997.8 |
| 20260509221600 | 69 | 211 | 10.4 | 21.7 | 0.00 | 0.11 | 0.00 | 56 | 996.9 |
| 20260509220140 | 69 | 201 | 10.4 | 20.9 | 0.00 | 0.11 | 0.00 | 56 | 996.9 |
| 20260509214545 | 69 | 187 | 7.0 | 20.0 | 0.00 | 0.15 | 0.00 | 57 | 996.8 |
| 20260509213118 | 71 | 188 | 9.6 | 20.9 | 0.00 | 0.15 | 0.00 | 56 | 996.8 |
| 20260509211515 | 70 | 180 | 13.0 | 20.9 | 0.00 | 0.15 | 0.00 | 55 | 996.8 |
| 20260509210106 | 70 | 190 | 10.4 | 22.6 | 0.00 | 0.15 | 0.00 | 57 | 996.8 |
| 20260509204638 | 70 | 186 | 8.7 | 20.9 | 0.00 | 0.17 | 0.00 | 57 | 997.3 |